Miscellaneous Local Product
Issued by NWS Hastings, NE

Home | Current Version | Previous Version | Text Only | Print | Product List | Glossary Off
Versions: 1 2 3 4 5 6 7 8 9 10 11 12 13 14 15 16 17 18 19 20 21 22 23 24 25 26 27 28 29 30 31 32 33 34 35 36 37 38 39 40 41 42 43 44 45 46 47 48 49 50

000
AXUS43 KGID 281102
MISGRI

GID CWA HOURLY WEATHER ROUNDUP
NATIONAL WEATHER SERVICE HASTINGS NE
600 AM CDT THU AUG 28 2014

NOTE: "FAIR" INDICATES FEW OR NO CLOUDS BELOW 12,000 FEET WITH NO
SIGNIFICANT WEATHER AND/OR OBSTRUCTIONS TO VISIBILITY.

...SOUTH CENTRAL NEBRASKA...

CITY           SKY/WX    TMP DP  RH WIND       PRES   REMARKS
GRAND ISLAND   CLOUDY    68  66  93 SE7       29.93F
HASTINGS       MOCLDY    67  64  90 SE8       29.94F
KEARNEY        MOCLDY    66  64  94 SE3       29.94F
ORD            CLOUDY    68  67  96 S6        29.91F
YORK           CLOUDY    68 N/A N/A E7        29.95F
AURORA         MOCLDY    67  67 100 E5        29.93F
LEXINGTON      MOCLDY    67  66  96 E10       29.88F
HOLDREGE       MOCLDY    66  64  95 CALM      29.93F
HEBRON         MOCLDY    69  66  91 CALM      29.93S FOG

...NEBRASKA PANHANDLE...

CITY           SKY/WX    TMP DP  RH WIND       PRES   REMARKS
CHADRON        CLOUDY    63  62  97 N6        29.99F
ALLIANCE       CLOUDY    62  60  93 NW7       29.99F
SCOTTSBLUFF    PTCLDY    58  58 100 W6        30.03F
SIDNEY         CLOUDY    60  56  86 NW13      30.03F

...WESTERN AND NORTH CENTRAL NEBRASKA...

CITY           SKY/WX    TMP DP  RH WIND       PRES   REMARKS
VALENTINE      CLOUDY    68  67  96 E3        29.91F
AINSWORTH      MOCLDY    66  66  99 CALM      29.91F
ONEILL         CLOUDY    70  69  98 SE5       29.92F
BROKEN BOW     CLOUDY    65  64  97 E3        29.92F
IMPERIAL       PTCLDY    60  58  92 NW6       29.95F
NORTH PLATTE   CLOUDY    63  60  90 NW7       29.94F
MCCOOK         MOCLDY    62  61  96 W5        29.95R

...EASTERN NEBRASKA...

CITY           SKY/WX    TMP DP  RH WIND       PRES   REMARKS
NORFOLK        LGT RAIN  69  67  93 SE10      29.94F
SO SIOUX CITY  RAIN      69  67  93 SE9       29.98F FOG
TEKAMAH        HVY RAIN  70  68  93 CALM      29.97F FOG
COLUMBUS       CLOUDY    68  66  94 E5        29.95F
ALBION         CLOUDY    67  65  93 SE5       29.94F
OMAHA EPPLEY   TSTM      71  68  90 E14       29.95F FOG
OFFUTT AFB     LGT RAIN  70  70 100 E10       29.95F
MILLARD        CLOUDY    71  69  94 E9        29.92F
LINCOLN        CLOUDY    71  69  93 S3        29.95S
NEBRASKA CITY  RAIN      70  70 100 E3        29.97F
BEATRICE       CLOUDY    73  72  96 SE6       29.94R THUNDER
FALLS CITY     CLOUDY    73  72  96 E7        29.95S

...NORTHERN KANSAS...

CITY           SKY/WX    TMP DP  RH WIND       PRES   REMARKS
GOODLAND       MOCLDY    57  56  96 S3        29.98F
HILL CITY      MOCLDY    66  64  93 E6        29.92F
NORTON         SUNNY     61  57  88 CALM      29.90F
PHILLIPSBURG   RAIN      66  66 100 E6        29.93F
SMITH CENTER   CLOUDY    66  66 100 NW6       29.96S
BELOIT         CLOUDY    73  70  88 SW6       29.92R
HAYS           CLOUDY    70  63  78 E7        29.95F
RUSSELL        MOCLDY    72  66  81 W6        29.94R
CONCORDIA      LGT RAIN  73  70  90 S17       29.92S
SALINA         LGT RAIN  76  69  79 SW7       29.95R
TOPEKA         LGT RAIN  78  71  79 SE6       29.94F



USA.gov is the U.S. government's official web portal to all federal, state and local government web resources and services.